De Xin Hai — BQBP — position and weather

sailwx.info

Track history (hours):
 
Tides and Currents Weather Stations Pressure Air Temp Water Temp Dewpoint Dewpoint Depression Visibility Wind Speed Wind Dir Waves Ship Positions

De Xin Hai

Last reported at 2014-Oct-22 10:23 UTC. Time now 2014-Oct-22 14:04 UTC.
Position N 54°38' W 001°09'.

Length 225 m; draft 6.9 m.

Type: Cargo ship. MMSI: 367344200.

Date/timePositionNaut miles runAvg speedWind from/ knotsBaromVisibWave heightAir tempDewpointWater temp
2014-Oct-22 10:23N 54°38' W 001°09'0 0.0
2014-Oct-22 09:23N 54°38' W 001°09'0 0.0
2014-Oct-22 07:23N 54°38' W 001°09'0 0.0
2014-Oct-21 17:23N 54°38' W 001°09'0 0.0
2014-Oct-21 02:29N 54°38' W 001°09'0 0.0
2014-Oct-21 00:23N 54°38' W 001°09'0 0.0
2014-Oct-20 22:23N 54°38' W 001°09'0 0.0
2014-Oct-20 17:17N 54°38' W 001°09'0 0.0
2014-Oct-20 16:32N 54°38' W 001°09'0 0.0
2014-Oct-20 15:23N 54°38' W 001°09'0 0.0
2014-Oct-20 14:26N 54°38' W 001°09'0 0.0
2014-Oct-20 13:11N 54°38' W 001°09'0 0.0
2014-Oct-20 12:14N 54°38' W 001°09'0 0.0
2014-Oct-20 11:29N 54°38' W 001°09'0 0.0
2014-Oct-20 10:26N 54°38' W 001°09'0 0.0
2014-Oct-20 09:29N 54°38' W 001°09'0 0.0
2014-Oct-20 08:29N 54°38' W 001°09'0 0.0
2014-Oct-20 07:32N 54°38' W 001°09'0 0.0
2014-Oct-20 06:14N 54°38' W 001°09'1 2.2
2014-Oct-20 05:34N 54°39' W 001°08'7 7.2
2014-Oct-20 04:33N 54°45' W 001°02'3 3.3
2014-Oct-20 03:31N 54°48' W 001°00'6 6.2
2014-Oct-20 02:33N 54°54' W 001°00'1211.7
2014-Oct-20 01:33N 55°06' W 001°00'141 8.1
2014-Oct-19 08:13N 57°27' W 001°00'6 9.6
2014-Oct-19 07:34N 57°33' W 001°02'1010.2
2014-Oct-19 06:34N 57°41' W 001°14'10 9.9
2014-Oct-19 05:34N 57°48' W 001°26'10 9.7
2014-Oct-19 04:33N 57°56' W 001°38'51 9.7
2014-Oct-18 23:20N 58°32' W 002°45'8 9.9
2014-Oct-18 22:34N 58°37' W 002°55'9 9.4
2014-Oct-18 21:34N 58°44' W 003°09'1211.6
2014-Oct-18 20:33N 58°45' W 003°31'1212.4
2014-Oct-18 19:33N 58°44' W 003°55'1312.7
2014-Oct-18 18:33N 58°44' W 004°19'  
Track history (hours):
 
Tides and Currents Weather Stations Pressure Air Temp Water Temp Dewpoint Dewpoint Depression Visibility Wind Speed Wind Dir Waves Ship Positions

De Xin Hai

Last reported at 2014-Oct-22 10:23 UTC. Time now 2014-Oct-22 14:04 UTC.
Position N 54°38' W 001°09'.

Length 225 m; draft 6.9 m.

Type: Cargo ship. MMSI: 367344200.

Date/timePositionNaut miles runAvg speedWind from/ knotsBaromVisibWave heightAir tempDewpointWater temp
2014-Oct-22 10:23N 54°38' W 001°09'0 0.0
2014-Oct-22 09:23N 54°38' W 001°09'0 0.0
2014-Oct-22 07:23N 54°38' W 001°09'0 0.0
2014-Oct-21 17:23N 54°38' W 001°09'0 0.0
2014-Oct-21 02:29N 54°38' W 001°09'0 0.0
2014-Oct-21 00:23N 54°38' W 001°09'0 0.0
2014-Oct-20 22:23N 54°38' W 001°09'0 0.0
2014-Oct-20 17:17N 54°38' W 001°09'0 0.0
2014-Oct-20 16:32N 54°38' W 001°09'0 0.0
2014-Oct-20 15:23N 54°38' W 001°09'0 0.0
2014-Oct-20 14:26N 54°38' W 001°09'0 0.0
2014-Oct-20 13:11N 54°38' W 001°09'0 0.0
2014-Oct-20 12:14N 54°38' W 001°09'0 0.0
2014-Oct-20 11:29N 54°38' W 001°09'0 0.0
2014-Oct-20 10:26N 54°38' W 001°09'0 0.0
2014-Oct-20 09:29N 54°38' W 001°09'0 0.0
2014-Oct-20 08:29N 54°38' W 001°09'0 0.0
2014-Oct-20 07:32N 54°38' W 001°09'0 0.0
2014-Oct-20 06:14N 54°38' W 001°09'1 2.2
2014-Oct-20 05:34N 54°39' W 001°08'7 7.2
2014-Oct-20 04:33N 54°45' W 001°02'3 3.3
2014-Oct-20 03:31N 54°48' W 001°00'6 6.2
2014-Oct-20 02:33N 54°54' W 001°00'1211.7
2014-Oct-20 01:33N 55°06' W 001°00'141 8.1
2014-Oct-19 08:13N 57°27' W 001°00'6 9.6
2014-Oct-19 07:34N 57°33' W 001°02'1010.2
2014-Oct-19 06:34N 57°41' W 001°14'10 9.9
2014-Oct-19 05:34N 57°48' W 001°26'10 9.7
2014-Oct-19 04:33N 57°56' W 001°38'51 9.7
2014-Oct-18 23:20N 58°32' W 002°45'8 9.9
2014-Oct-18 22:34N 58°37' W 002°55'9 9.4
2014-Oct-18 21:34N 58°44' W 003°09'1211.6
2014-Oct-18 20:33N 58°45' W 003°31'1212.4
2014-Oct-18 19:33N 58°44' W 003°55'1312.7
2014-Oct-18 18:33N 58°44' W 004°19'  

Dump ship's entire track history